Hourly Weather Homburg

Today, 13 April, Tuesday

Time Temperature Precipitation Wind Pressure Humidity
00:00 +1°C° 0 mm 1 mps 749 mmHg 74%
01:00 +2°C° 0 mm 1 mps 749 mmHg 75%
02:00 +2°C° 0 mm 1 mps 749 mmHg 76%
03:00 +2°C° 0 mm 1 mps 750 mmHg 77%
04:00 +2°C° 0 mm 1 mps 750 mmHg 78%
05:00 +2°C° 0 mm 1 mps 750 mmHg 79%
06:00 +2°C° 0 mm 1 mps 750 mmHg 82%
07:00 +3°C° 0 mm 2 mps 750 mmHg 71%
08:00 +4°C° 0 mm 2 mps 751 mmHg 61%
09:00 +5°C° 0 mm 3 mps 751 mmHg 50%
10:00 +7°C° 0 mm 3 mps 750 mmHg 46%
11:00 +7°C° 0 mm 3 mps 750 mmHg 42%
12:00 +8°C° 0 mm 3 mps 750 mmHg 38%
13:00 +8°C° 0 mm 3 mps 750 mmHg 39%
14:00 +8°C° 0 mm 3 mps 749 mmHg 39%
15:00 +8°C° 0 mm 3 mps 749 mmHg 40%
16:00 +7°C° 0 mm 3 mps 749 mmHg 47%
17:00 +5°C° 0 mm 2 mps 749 mmHg 54%
18:00 +4°C° 0 mm 2 mps 749 mmHg 61%
19:00 +3°C° 0 mm 2 mps 749 mmHg 64%
20:00 +3°C° 0 mm 1 mps 750 mmHg 67%
21:00 +2°C° 0 mm 1 mps 750 mmHg 70%
22:00 +1°C° 0 mm 1 mps 750 mmHg 71%
23:00 +1°C° 0 mm 1 mps 750 mmHg 72%

Tomorrow, 14 April, Wednesday

Time Temperature Precipitation Wind Pressure Humidity
00:00 +1°C° 0 mm 1 mps 750 mmHg 74%
01:00 +1°C° 0 mm 1 mps 749 mmHg 75%
02:00 0°C° 0 mm 1 mps 749 mmHg 76%
03:00 -2°C° 0 mm 2 mps 749 mmHg 77%
04:00 +1°C° 0 mm 1 mps 749 mmHg 74%
05:00 +2°C° 0 mm 1 mps 749 mmHg 71%
06:00 +2°C° 0 mm 1 mps 749 mmHg 68%
07:00 +3°C° 0 mm 2 mps 749 mmHg 62%
08:00 +5°C° 0 mm 2 mps 749 mmHg 55%
09:00 +7°C° 0 mm 3 mps 749 mmHg 49%
10:00 +7°C° 0.2 mm 3 mps 749 mmHg 47%
11:00 +7°C° 0.2 mm 3 mps 748 mmHg 46%
12:00 +8°C° 0.2 mm 3 mps 748 mmHg 45%
13:00 +8°C° 0.1 mm 3 mps 747 mmHg 43%
14:00 +8°C° 0.1 mm 2 mps 747 mmHg 42%
15:00 +8°C° 0.1 mm 2 mps 747 mmHg 41%
16:00 +7°C° 0.1 mm 2 mps 747 mmHg 48%
17:00 +5°C° 0.1 mm 2 mps 747 mmHg 55%
18:00 +4°C° 0.1 mm 2 mps 747 mmHg 63%
19:00 +3°C° 0 mm 2 mps 747 mmHg 67%
20:00 +2°C° 0 mm 2 mps 747 mmHg 71%
21:00 +1°C° 0 mm 2 mps 748 mmHg 75%
22:00 -2°C° 0 mm 2 mps 747 mmHg 81%
23:00 -1°C° 0 mm 2 mps 747 mmHg 81%

Day after tomorrow, 15 April, Thursday

Time Temperature Precipitation Wind Pressure Humidity
00:00 -1°C° 0 mm 2 mps 747 mmHg 81%
01:00 -1°C° 0 mm 2 mps 747 mmHg 82%
02:00 -1°C° 0 mm 2 mps 747 mmHg 82%
03:00 -2°C° 0 mm 2 mps 747 mmHg 83%
04:00 +1°C° 0 mm 1 mps 747 mmHg 77%
05:00 +2°C° 0 mm 1 mps 747 mmHg 75%
06:00 +2°C° 0 mm 1 mps 748 mmHg 73%
07:00 +3°C° 0 mm 2 mps 747 mmHg 67%
08:00 +4°C° 0 mm 3 mps 747 mmHg 61%
09:00 +5°C° 0 mm 3 mps 747 mmHg 56%
10:00 +3°C° 0.3 mm 2 mps 747 mmHg 70%
11:00 +5°C° 0.3 mm 3 mps 747 mmHg 56%
12:00 +8°C° 0.3 mm 4 mps 747 mmHg 43%
13:00 +8°C° 0.1 mm 4 mps 746 mmHg 42%
14:00 +8°C° 0.1 mm 4 mps 746 mmHg 42%
15:00 +8°C° 0.1 mm 4 mps 746 mmHg 42%
16:00 +7°C° 0.1 mm 4 mps 746 mmHg 50%
17:00 +5°C° 0.1 mm 4 mps 746 mmHg 58%
18:00 +4°C° 0.1 mm 3 mps 746 mmHg 66%
19:00 +3°C° 0 mm 3 mps 746 mmHg 67%
20:00 +2°C° 0 mm 3 mps 746 mmHg 69%
21:00 +1°C° 0 mm 3 mps 747 mmHg 71%
22:00 0°C° 0 mm 3 mps 747 mmHg 74%
23:00 -1°C° 0 mm 3 mps 747 mmHg 78%

16 April, Friday

Time Temperature Precipitation Wind Pressure Humidity
00:00 -1°C° 0 mm 2 mps 746 mmHg 82%
01:00 -1°C° 0 mm 2 mps 746 mmHg 83%
02:00 -1°C° 0 mm 2 mps 746 mmHg 84%
03:00 -1°C° 0 mm 2 mps 746 mmHg 85%
04:00 -1°C° 0 mm 3 mps 746 mmHg 84%
05:00 0°C° 0 mm 3 mps 746 mmHg 83%
06:00 0°C° 0 mm 3 mps 746 mmHg 82%
07:00 0°C° 0 mm 4 mps 746 mmHg 78%
08:00 +1°C° 0 mm 4 mps 746 mmHg 74%
09:00 +3°C° 0 mm 4 mps 746 mmHg 69%
10:00 +3°C° 0 mm 4 mps 746 mmHg 68%
11:00 +4°C° 0 mm 4 mps 746 mmHg 66%
12:00 +4°C° 0 mm 4 mps 745 mmHg 64%
13:00 +4°C° 0 mm 4 mps 745 mmHg 64%
14:00 +5°C° 0 mm 4 mps 745 mmHg 63%
15:00 +5°C° 0 mm 4 mps 745 mmHg 63%
16:00 +5°C° 0 mm 4 mps 745 mmHg 69%
17:00 +4°C° 0 mm 4 mps 745 mmHg 75%
18:00 +4°C° 0 mm 4 mps 745 mmHg 81%
19:00 +3°C° 0 mm 4 mps 745 mmHg 86%
20:00 +3°C° 0 mm 4 mps 745 mmHg 91%
21:00 +1°C° 0 mm 4 mps 745 mmHg 96%
22:00 +2°C° 0 mm 3 mps 745 mmHg 96%
23:00 +2°C° 0 mm 3 mps 745 mmHg 95%

17 April, Saturday

Time Temperature Precipitation Wind Pressure Humidity
00:00 +2°C° 0 mm 3 mps 745 mmHg 95%
01:00 +2°C° 0 mm 3 mps 745 mmHg 94%
02:00 +2°C° 0 mm 3 mps 745 mmHg 94%
03:00 +2°C° 0 mm 3 mps 745 mmHg 93%
04:00 +3°C° 0 mm 3 mps 745 mmHg 93%
05:00 +3°C° 0 mm 3 mps 745 mmHg 93%
06:00 +3°C° 0 mm 3 mps 745 mmHg 92%
07:00 +4°C° 0 mm 3 mps 745 mmHg 90%
08:00 +4°C° 0 mm 3 mps 745 mmHg 88%
09:00 +5°C° 0 mm 3 mps 745 mmHg 86%
10:00 +7°C° 0 mm 3 mps 745 mmHg 79%
11:00 +8°C° 0 mm 3 mps 744 mmHg 72%
12:00 +9°C° 0 mm 3 mps 744 mmHg 64%
13:00 +9°C° 0 mm 3 mps 744 mmHg 62%
14:00 +10°C° 0 mm 3 mps 744 mmHg 59%
15:00 +10°C° 0 mm 3 mps 743 mmHg 57%
16:00 +9°C° 0 mm 3 mps 743 mmHg 62%
17:00 +8°C° 0 mm 2 mps 743 mmHg 67%
18:00 +7°C° 0 mm 2 mps 743 mmHg 72%
19:00 +7°C° 0 mm 1 mps 744 mmHg 73%
20:00 +7°C° 0 mm 1 mps 744 mmHg 75%
21:00 +6°C° 0 mm 1 mps 744 mmHg 76%
22:00 +6°C° 0 mm 1 mps 744 mmHg 78%
23:00 +4°C° 0 mm 2 mps 744 mmHg 81%

18 April, Sunday

Time Temperature Precipitation Wind Pressure Humidity
00:00 +3°C° 0 mm 2 mps 744 mmHg 83%
01:00 +3°C° 0 mm 2 mps 744 mmHg 86%
02:00 +2°C° 0 mm 2 mps 744 mmHg 89%
03:00 +2°C° 0 mm 2 mps 744 mmHg 93%
04:00 +2°C° 0 mm 2 mps 744 mmHg 90%
05:00 +3°C° 0 mm 2 mps 744 mmHg 87%
06:00 +4°C° 0 mm 2 mps 744 mmHg 84%
07:00 +5°C° 0 mm 2 mps 744 mmHg 79%
08:00 +6°C° 0 mm 2 mps 744 mmHg 74%
09:00 +8°C° 0 mm 3 mps 744 mmHg 70%
10:00 +9°C° 0 mm 3 mps 744 mmHg 67%
11:00 +9°C° 0 mm 2 mps 744 mmHg 64%
12:00 +10°C° 0 mm 2 mps 744 mmHg 61%
13:00 +10°C° 0.1 mm 2 mps 744 mmHg 62%
14:00 +10°C° 0.1 mm 3 mps 743 mmHg 63%
15:00 +10°C° 0.1 mm 3 mps 743 mmHg 64%
16:00 +10°C° 0.1 mm 2 mps 743 mmHg 70%
17:00 +9°C° 0.1 mm 2 mps 743 mmHg 75%
18:00 +9°C° 0.1 mm 1 mps 744 mmHg 81%
19:00 +8°C° 0 mm 1 mps 744 mmHg 84%
20:00 +7°C° 0 mm 1 mps 744 mmHg 86%
21:00 +6°C° 0 mm 1 mps 744 mmHg 89%
22:00 +6°C° 0 mm 1 mps 744 mmHg 90%
23:00 +5°C° 0 mm 1 mps 744 mmHg 92%
Show more